Location: Jackson Park
(37.2862°N, 79.9123°W)
Time: 22:46:26
(UTC+00:00)

Transit 4A - Pass Details

Date: 13 May 2026
Orbit: 861 x 980 km, 66.8° (Epoch: 5 June)

Event Time Altitude Azimuth Distance (km) Brightness Sun altitude
Rises 22:36:34 0° 333° (NNW) 3,687 11.6 18.8°
Reaches altitude 10° 22:39:10 10° 335° (NNW) 2,737 10.9 18.3°
Maximum altitude 22:45:36 77° 62° (ENE) 1,001 8.3 17.0°
Drops below altitude 10° 22:51:55 10° 148° (SSE) 2,690 10.0 15.8°
Sets 22:54:27 0° 150° (SSE) 3,620 10.6 15.3°
